Location: ???? ?????????
(44.3677°N, 135.2344°E)
Time: 13:10:54
(UTC+00:00)

NOSS 3-1 (C) - Pass Details

Date: 19 May 2025
Orbit: 625 x 1577 km, 63.4° (Epoch: 18 June)

Event Time Altitude Azimuth Distance (km) Brightness Sun altitude
Rises 13:08:51 0° 238° (WSW) 2,968 6.0 -21.3°
Reaches altitude 10° 13:11:06 10° 246° (WSW) 2,120 5.3 -21.4°
Maximum altitude 13:15:38 43° 318° (NW) 1,067 4.2 -21.8°
Drops below altitude 10° 13:21:06 10° 29° (NNE) 2,557 6.2 -22.2°
Sets 13:24:03 0° 36° (NE) 3,659 6.9 -22.4°
